Location: Unspecified
(47.6579°N, 23.5637°E)
Time: 09:48:03
(UTC+02:00)

Envisat - Pass Details

Date: 08 December 2021
Orbit: 764 x 766 km, 98.2° (Epoch: 26 January)

Event Time Altitude Azimuth Distance (km) Brightness Sun altitude
Rises 18:00:49 0° 217° (SW) 3,222 7.2 -13.9°
Reaches altitude 10° 18:04:18 10° 242° (WSW) 2,302 6.8 -14.5°
Maximum altitude 18:06:53 14° 273° (W) 2,044 6.3 -14.9°
Drops below altitude 10° 18:09:29 10° 304° (NW) 2,311 6.0 -15.3°
Sets 18:13:00 0° 329° (NNW) 3,244 6.4 -15.9°
